Flag for Sweden Weather past 2 weeks in Karlstad, Sweden

Now
55 °F

Cool.


Feels Like: 52 °F
Forecast: 55 / 68 °F
Wind: 12 mph from Southwest

Location: Karlstad

Current Time: Aug 29, 2015 at 3:10:02 AM

Latest Report: Aug 29, 2015 at 2:20 AM


Visibility: N/A

Pressure: 29.86 "Hg

Humidity: 88%

Dew point: 52 °F

Location of KarlstadLocation

Historic Weather in Karlstad — Graph

°F

Karlstad temperature yesterday

Maximum temperature yesterday: 66 °F (at 3:50 PM)
Minimum temperature yesterday: 54 °F (at 4:50 AM)
Average temperature yesterday: 59 °F

Past Weeks' High & Low Weather Summary

 TemperatureHumidityPressure
High75 °F (Aug 15, 2:50 PM)100% (Aug 19, 1:50 AM)30.39 "Hg (Aug 19, 1:50 AM)
Low45 °F (Aug 19, 4:20 AM)17% (Aug 14, 2:20 PM)29.56 "Hg (Aug 27, 3:20 PM)
Average62 °F72%30.09 "Hg
* Reported Aug 14 1:20 AM — Aug 29 1:50 AM, Karlstad, Weather by CustomWeather, © 2015

Note: Actual official high and low records may vary slightly from our data, if they occured in-between our weather recording intervals... More about our weather records

Advertising

Karlstad weather history for previous 24 hours

 ConditionsComfort  
Time TempWeatherWind HumidityBarometerVisibility
1:50 AM
Sat, Aug 29
55 °FCool.10 mph94%29.86 "HgN/A
1:20 AM55 °FCool.10 mph94%29.86 "HgN/A
12:50 AM55 °FCool.8 mph94%29.86 "HgN/A
12:20 AM55 °FCool.9 mph94%29.83 "HgN/A
11:50 PM
Fri, Aug 28
55 °FCool.12 mph94%29.83 "HgN/A
11:20 PM57 °FCool.9 mph82%29.83 "HgN/A
10:50 PM55 °FCool.9 mph88%29.83 "HgN/A
10:20 PM57 °FCool.8 mph88%29.80 "HgN/A
9:50 PM57 °FCool.9 mph82%29.80 "HgN/A
9:20 PM59 °FSunny.9 mph77%29.80 "Hg10 mi
8:50 PM59 °FSunny.10 mph77%29.80 "Hg10 mi
8:20 PM61 °FSunny.10 mph72%29.77 "Hg10 mi
7:50 PM61 °FPassing clouds.12 mph72%29.77 "HgN/A
7:20 PM63 °FPassing clouds.12 mph68%29.77 "HgN/A
6:50 PM63 °FPassing clouds.12 mph68%29.77 "HgN/A
6:20 PM63 °FPassing clouds.13 mph68%29.74 "HgN/A
5:50 PM64 °FPassing clouds.10 mph64%29.74 "HgN/A
5:20 PM66 °FScattered clouds.16 mph56%29.74 "HgN/A
4:50 PM64 °FScattered clouds.15 mph60%29.74 "HgN/A
4:20 PM64 °FScattered clouds.15 mph60%29.74 "HgN/A
3:50 PM66 °FScattered clouds.14 mph56%29.71 "HgN/A
3:20 PM64 °FScattered clouds.12 mph56%29.71 "HgN/A
2:50 PM64 °FBroken clouds.12 mph64%29.71 "HgN/A
2:20 PM63 °FScattered clouds.12 mph68%29.71 "HgN/A
1:50 PM64 °FScattered clouds.13 mph68%29.68 "HgN/A
1:20 PM64 °FScattered clouds.13 mph64%29.68 "HgN/A
12:50 PM63 °FSprinkles. Partly sunny.8 mph68%29.68 "HgN/A
12:20 PM61 °FPartly sunny.8 mph77%29.68 "HgN/A
11:50 AM63 °FScattered clouds.12 mph73%29.68 "HgN/A
11:20 AM61 °FScattered clouds.12 mph77%29.68 "HgN/A
10:50 AM61 °FScattered clouds.10 mph77%29.68 "HgN/A
10:20 AM59 °FScattered clouds.15 mph77%29.68 "HgN/A
9:50 AM61 °FScattered clouds.14 mph77%29.65 "HgN/A
9:20 AM59 °FPassing clouds.12 mph82%29.65 "HgN/A
8:50 AM57 °FPassing clouds.12 mph88%29.65 "HgN/A
8:20 AM57 °FPassing clouds.7 mph88%29.65 "HgN/A
7:50 AM55 °FSunny.6 mph94%29.65 "Hg10 mi
7:20 AM54 °FSunny.7 mph94%29.65 "Hg10 mi
6:50 AM54 °FClear.8 mph94%29.62 "Hg10 mi
5:50 AM54 °FClear.8 mph100%29.62 "Hg10 mi
5:20 AM54 °FCool.8 mph100%29.62 "HgN/A
4:50 AM54 °FCool.8 mph100%29.62 "HgN/A
4:20 AM55 °FPassing clouds.9 mph94%29.62 "HgN/A
3:50 AM55 °FPassing clouds.10 mph94%29.62 "HgN/A
3:20 AM55 °FPartly cloudy.9 mph94%29.62 "HgN/A
Weather by CustomWeather, © 2015

See weather overviewHow to use our weather pages